Flag for China Weather past 2 weeks in Lanchow, China

Now
50 °F

Sandstorm.


Feels Like: 45 °F
Forecast: 39 / 61 °F
Wind: 13 mph from North

Location: Lanzhou / Zhongchuan


UV Index: 5 (Moderate)

Visibility: 1 mi


Pressure: 29.92 "Hg

Humidity: 37%

Dew point: 25 °F

Location of LanchowLocation

Historic Weather in Lanchow

°F

Lanchow temperature yesterday

Maximum temperature yesterday: 66 °F (at 3:00 PM)
Minimum temperature yesterday: 45 °F (at 6:00 AM)
Average temperature yesterday: 55 °F

Past Weeks' High & Low Weather Summary

 TemperatureHumidityPressure
High70 °F (Apr 14, 3:00 PM)100% (Apr 15, 5:00 AM)30.30 "Hg (Apr 15, 5:00 AM)
Low32 °F (Apr 22, 6:00 AM)16% (Apr 12, 4:00 PM)29.74 "Hg (Apr 14, 5:00 PM)
Average49 °F67%30.04 "Hg
* Reported Apr 9 6:00 AM — Apr 24 6:00 AM, Lanchow, Weather by CustomWeather, © 2014

Note: Actual official high and low records may vary slightly from our data, if they occured in-between our weather recording intervals... More about our weather records

Advertising

Historic Weather Conditions — Data for Previous 24 hours

 ConditionsComfort  
Time TempWeatherWind HumidityBarometerVisibility
6:00 AM
Apr 24
50 °FSandstorm.13 mph37%29.92 "Hg1 mi
5:00 AM50 °FSandstorm.15 mph40%29.89 "Hg1 mi
4:00 AM45 °FClear.6 mph81%29.86 "Hg10 mi
3:00 AM46 °FPassing clouds.6 mph76%29.86 "HgN/A
2:00 AM46 °FPassing clouds.8 mph76%29.89 "HgN/A
1:00 AM48 °FPassing clouds.6 mph76%29.89 "HgN/A
12:00 AM50 °FPassing clouds.6 mph71%29.89 "HgN/A
11:00 PM
Apr 23
50 °FPassing clouds.6 mph71%29.89 "HgN/A
10:00 PM54 °FPassing clouds.3 mph63%29.92 "HgN/A
9:00 PM55 °FPassing clouds.1 mph63%29.89 "HgN/A
8:00 PM57 °FPassing clouds.3 mph51%29.86 "HgN/A
7:00 PM61 °FScattered clouds.8 mph42%29.83 "HgN/A
6:00 PM61 °FPassing clouds.13 mph45%29.83 "HgN/A
5:00 PM66 °FPassing clouds.8 mph43%29.80 "HgN/A
4:00 PM64 °FPassing clouds.10 mph46%29.83 "HgN/A
3:00 PM66 °FPassing clouds.3 mph46%29.83 "HgN/A
2:00 PM64 °FScattered clouds.6 mph49%29.86 "HgN/A
1:00 PM63 °FScattered clouds.6 mph49%29.89 "HgN/A
12:00 PM61 °FScattered clouds.6 mph48%29.92 "HgN/A
11:00 AM61 °FPassing clouds.1 mph45%29.95 "HgN/A
10:00 AM57 °FSunny.1 mph51%29.98 "Hg10 mi
9:00 AM55 °FSunny.1 mph47%29.98 "Hg10 mi
8:00 AM50 °FSunny.3 mph62%29.95 "Hg10 mi
7:00 AM46 °FClear.3 mph66%29.95 "Hg10 mi
Weather by CustomWeather, © 2014

See weather overview